Torna al catalogo

STARLINK-34052

AttivoComunicazioniVLEO
NORAD 63874·PAYLOAD·🇺🇸 United States

Lanciato May 10, 2025 da Vandenberg Space Force Base

Loading…

Prossimi Passaggi (prossime 24 ore)

TLE

AggiornatoSource: CelesTrak SupGP

Epoca: Sep 15, 2026, 02:38 UTC

1 63874C 25094L   26258.11020833  .00003559  00000+0  12366-3 0  2589
2 63874  69.9986 115.0221 0003122 273.7694  56.2015 15.29610821    10

Traccia STARLINK-34052 in tempo reale con AllMySat

Download on the App Store